Le nostre stazioni meteo in Italia

Pubblicità
Il mio iltempo24.it
Bournemouth Airport, Gran Bretagna (3862): Temperatura & dewpoint: 13.04.2019 16:00:00 - 19.04.2019 16:00:00 (BST)Bournemouth Airport, Gran Bretagna (3862): Temperatura -20cm & Temperatura -100cm: 13.04.2019 16:00:00 - 19.04.2019 16:00:00 (BST)Bournemouth Airport, Gran Bretagna (3862): velocità del vento & gusts: 13.04.2019 16:00:00 - 19.04.2019 16:00:00 (BST)Bournemouth Airport, Gran Bretagna (3862): direzione del vento: 13.04.2019 16:00:00 - 19.04.2019 16:00:00 (BST)Bournemouth Airport, Gran Bretagna (3862): reduced air pressure: 13.04.2019 16:00:00 - 19.04.2019 16:00:00 (BST)Bournemouth Airport, Gran Bretagna (3862): visibility: 13.04.2019 16:00:00 - 19.04.2019 16:00:00 (BST)Bournemouth Airport, Gran Bretagna (3862): ore di luce: 13.04.2019 16:00:00 - 19.04.2019 16:00:00 (BST)Bournemouth Airport, Gran Bretagna (3862): precipitazioni: 13.04.2019 16:00:00 - 19.04.2019 16:00:00 (BST)
Data & Tempo tt [°C] td [°C] tt -20cm [°C] tt -100cm [°C] ff [km/h] ff [kn] fx [km/h] fx [kn] dd ppp [hPa] vv [km] sd [min] rr [mm]
19.04.2019 16:00:00 24,1 5,2 - - 16 9 - - SE 1027,0 10 60 0,0
19.04.2019 15:00:00 23,7 6,6 - - 18 10 - - SSE 1027,2 10 60 0,0
19.04.2019 14:00:00 23,1 4,0 - - 8 4 - - ESE 1027,3 28 60 0,0
19.04.2019 13:00:00 22,0 6,1 - - 13 7 - - ENE 1027,3 10 60 0,0
19.04.2019 12:00:00 21,0 7,0 - - 15 8 - - ENE 1027,2 22 60 0,0
19.04.2019 11:00:00 19,4 8,4 - - 16 9 - - NE 1027,2 10 60 0,0
19.04.2019 10:00:00 17,4 8,2 11,5 9,7 13 7 - - NNE 1027,1 15 60 0,0
19.04.2019 09:00:00 14,5 7,6 - - 11 6 - - NNE 1026,9 13 60 0,0
19.04.2019 08:00:00 11,9 6,7 - - 9 5 - - N 1026,6 10 60 0,0
19.04.2019 07:00:00 9,7 5,9 - - 9 5 - - N 1026,2 9 6 0,0
19.04.2019 06:00:00 8,8 5,3 - - 9 5 - - - 1025,5 9 0 0,0
19.04.2019 05:00:00 9,3 5,0 - - 8 4 - - N 1025,2 11 0 0,0
19.04.2019 04:00:00 8,6 4,6 - - 8 4 - - N 1025,0 12 0 0,0
19.04.2019 03:00:00 10,6 5,1 - - 8 4 - - NE 1024,7 13 0 0,0
19.04.2019 02:00:00 11,3 5,5 - - 15 8 - - NE 1024,7 13 0 0,0
19.04.2019 01:00:00 11,3 5,4 - - 13 7 - - NE 1024,6 13 - 0,0
19.04.2019 00:00:00 12,0 5,6 - - 13 7 - - NE 1024,4 13 0 0,0
18.04.2019 23:00:00 13,0 6,3 - - 13 7 - - NE 1024,1 13 0 0,0
18.04.2019 22:00:00 13,8 7,2 - - 11 6 - - ENE 1023,7 10 0 0,0
18.04.2019 21:00:00 15,4 7,1 - - 9 5 - - NE 1023,3 10 0 0,0
18.04.2019 20:00:00 18,7 6,5 - - 15 8 - - E 1022,5 10 0 0,0
18.04.2019 19:00:00 19,9 6,9 - - 16 9 - - E 1022,0 10 42 0,0
18.04.2019 18:00:00 21,4 5,8 - - 21 11 - - E 1021,3 10 60 0,0
18.04.2019 17:00:00 21,6 7,0 - - 18 10 - - E 1021,0 10 60 0,0
18.04.2019 16:00:00 21,3 6,8 - - 24 13 - - ESE 1020,9 35 60 0,0
18.04.2019 15:00:00 20,8 8,2 - - 21 11 - - E 1021,1 10 60 0,0
18.04.2019 14:00:00 19,9 8,7 - - 26 14 - - E 1021,1 10 18 0,0
18.04.2019 13:00:00 18,9 8,5 - - 28 15 - - E 1021,2 10 60 0,0
18.04.2019 12:00:00 18,2 8,6 - - 22 12 - - E 1021,1 19 60 0,0
18.04.2019 11:00:00 17,3 9,7 - - 22 12 - - E 1021,2 7 42 0,0
18.04.2019 10:00:00 15,3 9,6 10,7 9,7 21 11 - - ENE 1021,2 5 24 0,0
18.04.2019 09:00:00 13,1 8,8 - - 18 10 - - ENE 1020,9 5 0 0,0
18.04.2019 08:00:00 11,1 8,5 - - 16 9 - - ENE 1020,8 5 0 0,0
18.04.2019 07:00:00 10,1 7,9 - - 15 8 - - ENE 1020,4 5 0 0,0
18.04.2019 06:00:00 9,5 7,6 - - 13 7 - - E 1020,0 4,0 0 0,0
18.04.2019 05:00:00 9,8 7,8 - - 16 9 - - ENE 1019,9 4,3 0 0,0
18.04.2019 04:00:00 9,7 7,5 - - 15 8 - - ENE 1020,1 4,9 0 0,0
18.04.2019 03:00:00 9,9 7,5 - - 15 8 - - ENE 1020,1 6 0 0,0
18.04.2019 02:00:00 9,9 7,5 - - 13 7 - - E 1020,3 8 0 0,0
18.04.2019 01:00:00 9,5 7,2 - - 11 6 - - ENE 1020,3 8 - 0,0
18.04.2019 00:00:00 9,0 6,8 - - 9 5 - - ENE 1020,1 10 0 0,0
17.04.2019 23:00:00 8,5 6,6 - - 9 5 - - ENE 1019,8 9 0 0,0
17.04.2019 22:00:00 8,2 6,7 - - 9 5 - - ENE 1019,6 5 0 0,0
17.04.2019 21:00:00 8,9 7,2 - - 9 5 - - E 1019,6 4,0 0 0,0
17.04.2019 20:00:00 9,7 8,7 - - 4 2 - - SE 1019,2 3,4 0 0,0
17.04.2019 19:00:00 10,6 8,7 - - 11 6 - - S 1018,8 3,0 18 0,0
17.04.2019 18:00:00 11,8 9,1 - - 15 8 - - S 1018,5 3,0 60 0,0
17.04.2019 17:00:00 12,4 8,4 - - 18 10 - - S 1018,4 5 60 0,0
17.04.2019 16:00:00 14,6 9,1 - - 16 9 - - SSE 1018,4 5 60 0,0
17.04.2019 15:00:00 15,0 8,9 - - 16 9 - - SSE 1018,7 6 48 0,0
17.04.2019 14:00:00 15,2 9,2 - - 15 8 - - SSE 1018,7 5 6 0,0
17.04.2019 13:00:00 14,4 8,6 - - 13 7 - - SSE 1019,1 5 0 0,0
17.04.2019 12:00:00 14,4 8,1 - - 13 7 - - SSE 1019,4 5 36 0,0
17.04.2019 11:00:00 14,5 8,5 - - 8 4 - - - 1019,3 5 60 0,0
17.04.2019 10:00:00 12,6 9,9 10,2 9,5 4 2 - - - 1019,5 4,5 60 0,0
17.04.2019 09:00:00 7,5 7,5 - - 2 1 - - NNO 1019,4 3,8 60 0,0
17.04.2019 08:00:00 4,7 4,5 - - 2 1 - - N 1019,2 1,0 18 0,0
17.04.2019 07:00:00 3,1 2,8 - - 4 2 - - N 1018,9 0,2 0 0,2
17.04.2019 06:00:00 2,7 2,5 - - 4 2 - - NO 1018,6 0,1 0 0,0
17.04.2019 05:00:00 3,1 2,8 - - 4 2 - - N 1018,3 0,1 0 0,0
17.04.2019 04:00:00 3,2 2,9 - - 4 2 - - N 1018,4 - 0 0,0
17.04.2019 03:00:00 3,6 3,1 - - 2 1 - - NNO 1018,6 - 0 0,0
17.04.2019 02:00:00 4,9 4,3 - - 2 1 - - O 1018,7 - 0 0,0
17.04.2019 01:00:00 5,8 5,1 - - 4 2 - - ONO 1018,6 0,1 - 0,0
17.04.2019 00:00:00 8,8 7,9 - - 2 1 - - NNO 1018,5 4,2 0 0,0
16.04.2019 23:00:00 8,8 8,1 - - 8 4 - - ONO 1018,4 4,7 0 0,0
16.04.2019 22:00:00 7,8 6,2 - - 9 5 - - O 1018,1 5 0 0,0
16.04.2019 21:00:00 9,0 6,7 - - 9 5 - - O 1017,9 7 0 0,0
16.04.2019 20:00:00 11,6 8,0 - - 8 4 - - ONO 1017,2 8 0 0,0
16.04.2019 19:00:00 12,2 8,7 - - 5 3 - - O 1016,7 8 0 0,0
16.04.2019 18:00:00 12,2 8,1 - - 15 8 - - ONO 1016,4 11 0 0,0
16.04.2019 17:00:00 12,9 7,7 - - 9 5 - - SO 1016,0 12 0 0,0
16.04.2019 16:00:00 14,0 7,1 - - 5 3 - - ONO 1015,8 13 0 0,0
16.04.2019 15:00:00 13,8 6,0 - - 5 3 - - - 1015,8 9 0 0,0
16.04.2019 14:00:00 13,6 7,1 - - 2 1 - - - 1015,7 8 0 0,0
16.04.2019 13:00:00 12,8 8,1 - - 9 5 - - N 1015,3 4,5 0 0,0
16.04.2019 12:00:00 11,7 9,0 - - 11 6 - - NNE 1015,5 5 6 0,0
16.04.2019 11:00:00 9,9 8,1 - - 5 3 - - NNO 1015,5 3,0 0 0,2
16.04.2019 10:00:00 9,0 7,4 10,0 9,4 5 3 - - - 1015,1 3,0 0 0,2
16.04.2019 09:00:00 8,3 6,8 - - 5 3 - - - 1014,7 3,0 0 0,0
16.04.2019 08:00:00 7,9 6,8 - - 8 4 - - NNO 1014,2 3,4 0 0,0
16.04.2019 07:00:00 7,3 6,5 - - 8 4 - - N 1013,4 2,8 0 0,0
16.04.2019 06:00:00 7,2 6,1 - - 5 3 - - NNO 1013,0 3,3 0 0,2
16.04.2019 05:00:00 7,3 6,1 - - 8 4 - - N 1013,1 4,8 0 0,2
16.04.2019 04:00:00 7,8 5,6 - - 5 3 - - N 1013,1 6 0 0,2
16.04.2019 03:00:00 8,6 5,6 - - 5 3 - - N 1013,0 7 0 0,0
16.04.2019 02:00:00 10,0 4,1 - - 4 2 - - E 1013,1 10 0 0,0
16.04.2019 01:00:00 10,4 3,8 - - 15 8 - - E 1013,0 11 - 0,0
16.04.2019 00:00:00 10,7 3,3 - - 16 9 - - E 1013,4 10 0 0,0
15.04.2019 23:00:00 10,8 2,6 - - 16 9 - - E 1013,3 10 0 0,0
15.04.2019 22:00:00 10,8 3,2 - - 18 10 - - E 1013,4 10 0 0,0
15.04.2019 21:00:00 11,0 2,7 - - 21 11 - - ESE 1013,7 12 0 0,0
15.04.2019 20:00:00 11,1 2,4 - - 22 12 - - ESE 1013,7 10 0 0,0
15.04.2019 19:00:00 11,4 2,0 - - 24 13 - - E 1013,5 10 6 0,0
15.04.2019 18:00:00 11,8 2,1 - - 24 13 - - E 1013,7 10 0 0,0
15.04.2019 17:00:00 12,3 1,5 - - 26 14 48 26 ESE 1014,5 10 24 0,0
15.04.2019 16:00:00 13,3 1,9 - - 28 15 55 30 ESE 1014,8 10 60 0,0
15.04.2019 15:00:00 13,4 1,7 - - 35 19 52 28 ESE 1015,4 10 60 0,0
15.04.2019 14:00:00 12,8 1,7 - - 31 17 52 28 SE 1016,1 13 54 0,0
15.04.2019 13:00:00 11,8 1,5 - - 37 20 55 30 SE 1017,1 10 60 0,0
15.04.2019 12:00:00 11,0 1,8 - - 37 20 52 28 SE 1018,2 12 60 0,0
15.04.2019 11:00:00 10,8 0,8 - - 34 18 54 29 SE 1018,9 15 60 0,0
15.04.2019 10:00:00 10,2 1,2 9,4 9,5 34 18 54 29 SE 1019,4 10 60 0,0
15.04.2019 09:00:00 9,6 0,2 - - 29 16 50 27 SE 1020,0 15 42 0,0
15.04.2019 08:00:00 8,5 0,0 - - 28 15 - - SE 1020,3 10 0 0,0
15.04.2019 07:00:00 8,1 0,4 - - 24 13 - - SE 1020,5 14 0 0,0
15.04.2019 06:00:00 8,0 0,3 - - 26 14 - - SE 1020,7 13 0 0,0
15.04.2019 05:00:00 8,0 1,2 - - 24 13 - - SE 1021,5 12 0 0,0
15.04.2019 04:00:00 7,7 1,2 - - 21 11 - - SE 1021,9 10 0 0,0
15.04.2019 03:00:00 7,4 1,3 - - 22 12 - - ESE 1022,0 9 0 0,0
15.04.2019 02:00:00 7,3 1,1 - - 18 10 - - ESE 1022,9 9 0 0,0
15.04.2019 01:00:00 7,3 1,7 - - 18 10 - - ESE 1023,3 8 - 0,0
15.04.2019 00:00:00 6,7 2,3 - - 15 8 - - E 1023,7 7 0 0,0
14.04.2019 23:00:00 7,4 1,9 - - 21 11 - - ESE 1023,6 10 0 0,0
14.04.2019 22:00:00 7,1 0,9 - - 18 10 - - ESE 1023,7 10 0 0,0
14.04.2019 21:00:00 6,9 0,5 - - 22 12 - - ESE 1023,4 13 0 0,0
14.04.2019 20:00:00 7,5 -0,4 - - 16 9 - - ESE 1023,2 10 0 0,0
14.04.2019 19:00:00 7,9 -1,5 - - 21 11 - - ESE 1023,2 10 30 0,0
14.04.2019 18:00:00 8,7 -1,9 - - 26 14 - - SE 1023,3 10 24 0,0
14.04.2019 17:00:00 8,5 -2,2 - - 24 13 - - SE 1023,8 10 60 0,0
14.04.2019 16:00:00 8,5 -1,9 - - 24 13 - - SE 1023,9 10 6 0,0
14.04.2019 15:00:00 8,5 -2,4 - - 18 10 - - SE 1025,1 10 0 0,0
14.04.2019 14:00:00 8,5 -1,5 - - 22 12 - - ESE 1024,3 10 12 0,0
14.04.2019 13:00:00 8,2 -0,4 - - 26 14 - - ESE 1023,3 22 18 0,0
14.04.2019 12:00:00 8,3 -0,6 - - 26 14 - - E 1023,8 22 0 0,0
14.04.2019 11:00:00 8,2 -0,7 - - 22 12 - - E 1024,4 10 24 0,0
14.04.2019 10:00:00 7,7 -0,9 9,5 9,5 26 14 - - E 1024,3 10 48 0,0
14.04.2019 09:00:00 5,6 -0,2 - - 16 9 - - E 1024,4 24 42 0,0
14.04.2019 08:00:00 3,8 -0,3 - - 15 8 - - ENE 1024,5 26 60 0,0
14.04.2019 07:00:00 1,3 -1,6 - - 15 8 - - ENE 1024,5 10 6 0,0
14.04.2019 06:00:00 0,1 -2,4 - - 13 7 - - NE 1024,2 25 0 0,0
14.04.2019 05:00:00 0,8 -2,0 - - 9 5 - - ENE 1024,4 23 0 0,0
14.04.2019 04:00:00 0,6 -1,9 - - 11 6 - - ENE 1024,8 22 0 0,0
14.04.2019 03:00:00 0,4 -2,8 - - 9 5 - - ENE 1024,8 21 0 0,0
14.04.2019 02:00:00 1,0 -1,7 - - 9 5 - - ENE 1025,3 17 0 0,0
14.04.2019 01:00:00 1,8 -1,9 - - 8 4 - - ENE 1025,4 17 - 0,0
14.04.2019 00:00:00 1,9 -1,5 - - 11 6 - - ENE 1025,3 13 0 0,0
13.04.2019 23:00:00 2,3 -0,5 - - 8 4 - - E 1025,1 14 0 0,0
13.04.2019 22:00:00 3,5 -1,2 - - 11 6 - - E 1025,4 10 0 0,0
13.04.2019 21:00:00 5,4 0,6 - - 9 5 - - E 1025,4 10 0 0,0
13.04.2019 20:00:00 6,4 0,8 - - 11 6 - - ESE 1025,2 10 6 0,0
13.04.2019 19:00:00 7,7 0,1 - - 15 8 - - ESE 1025,1 10 0 0,0
13.04.2019 18:00:00 8,8 1,0 - - 18 10 - - SSE 1025,2 18 24 0,0
13.04.2019 17:00:00 8,6 0,8 - - 21 11 - - S 1025,5 10 24 0,0
13.04.2019 16:00:00 8,3 0,0 - - 22 12 - - SE 1025,7 10 6 0,0

tt = Temperatura
td = dewpoint
tt -20cm = Temperatura -20cm
tt -100cm = Temperatura -100cm
ff = velocità del vento
fx = gusts
dd = direzione del vento
ppp = reduced air pressure
vv = visibility
sd = ore di luce
rr = precipitazioni

Stazioni seguenti

WeatherPro
AMSI
MeteoEarth